Location: Oak Harbor
(48.2930°N, 122.6420°W)
Time: 00:31:35
(UTC-07:00)

ACS3 Solar Sail - Visible Passes

Search period start: 20 May 2026 00:00
Search period end: 30 May 2026 00:00
Orbit: 902 x 937 km, 97.2° (Epoch: 19 May)

Date Brightness Start Highest point End Pass type
(mag) Time Alt. Az. Time Alt. Az. Time Alt. Az.
20 May 3.9 00:08:38 10° ENE 00:10:07 11° E 00:11:36 10° E visible
20 May 1.8 01:47:39 10° NNE 01:53:33 67° E 01:55:57 37° S visible
20 May 3.2 03:30:47 10° N 03:35:23 24° WNW 03:39:25 12° WSW visible
21 May 3.8 00:15:55 10° NE 00:18:39 13° E 00:20:59 11° ESE visible
21 May 1.7 01:55:58 10° NNE 02:01:55 78° ESE 02:04:27 37° S visible
21 May 3.3 03:39:20 10° NNW 03:43:37 21° WNW 03:47:54 10° WSW visible
22 May 3.6 00:23:40 10° NE 00:27:10 16° E 00:29:29 13° ESE visible
22 May 1.6 02:04:19 10° NNE 02:10:17 90° ESE 02:12:57 35° SSW visible
22 May 3.5 03:47:56 10° NNW 03:51:50 19° WNW 03:55:44 10° W visible
23 May 3.4 00:31:35 10° NE 00:35:39 19° E 00:37:59 15° ESE visible
23 May 1.7 02:12:41 10° N 02:18:38 79° WNW 02:21:27 33° SSW visible
23 May 3.6 03:56:36 10° NNW 04:00:02 16° NW 04:03:28 10° W visible
24 May 3.3 00:39:37 10° NE 00:44:07 22° E 00:46:28 18° ESE visible
24 May 1.8 02:21:04 10° N 02:26:57 68° WNW 02:29:56 30° SSW visible
24 May 3.7 04:05:21 10° NNW 04:08:13 14° NW 04:11:06 10° W visible
25 May 3.1 00:47:42 10° NE 00:52:35 26° E 00:54:58 20° ESE visible
25 May 2.0 02:29:27 10° N 02:35:16 58° WNW 02:38:26 27° SW visible
25 May 3.8 04:14:15 10° NNW 04:16:23 12° NW 04:18:32 10° WNW visible
26 May 2.9 00:55:52 10° NNE 01:01:02 30° E 01:03:27 23° SE visible
26 May 2.2 02:37:52 10° N 02:43:34 50° WNW 02:46:55 24° SW visible
26 May 4.0 04:23:42 10° NW 04:24:33 10° NW 04:25:24 10° WNW visible
27 May 2.7 01:04:02 10° NNE 01:09:27 35° E 01:11:56 25° SE visible
27 May 2.4 02:46:17 10° N 02:51:51 43° WNW 02:55:24 21° SW visible
28 May 2.5 01:12:16 10° NNE 01:17:52 41° E 01:20:25 28° SE visible
28 May 2.6 02:54:44 10° N 03:00:08 38° WNW 03:03:52 18° WSW visible
29 May 2.2 01:20:31 10° NNE 01:26:16 48° E 01:28:53 30° SSE visible
29 May 2.8 03:03:11 10° N 03:08:23 33° WNW 03:12:21 16° WSW visible
